SCP
1 1 2 4 5 5 4 3 3 2 2 2 1 1 2 2 2 2 2 1 2 2 2 1 1 1 1 1 1 1 1 1 1 1 1 1 0 0 0 0 0 0 0
2 2 3 4 5 5 4 3 3 2 2 2 2 2 2 1 1 2 1 1 2 2 2 1 1 1 1 1 1 1 1 1 1 1 1 0 0 0 0 0 0 0 0
2 3 3 4 5 5 5 4 3 2 2 2 1 1 1 1 1 1 1 1 1 2 2 2 1 1 1 1 1 1 1 1 1 1 1 0 0 0 0 0 0 0 0
3 3 4 4 5 5 5 4 3 2 2 1 1 1 1 1 1 1 1 1 1 1 2 1 1 1 1 2 2 1 1 1 1 1 1 0 0 0 0 0 0 0 0
3 4 5 5 5 5 5 4 3 3 2 1 1 1 1 1 1 1 1 1 1 1 1 1 1 1 1 1 1 1 1 1 1 1 0 0 0 0 0 0 0 0 0
3 4 5 5 5 5 5 4 3 3 2 1 1 1 1 1 1 1 1 1 1 1 1 1 1 1 1 1 1 1 1 1 1 1 0 0 0 0 0 0 0 0 0
4 4 5 6 6 5 5 4 3 3 2 1 1 1 1 1 1 1 1 1 1 1 1 1 1 1 1 1 1 1 1 1 1 0 0 0 0 0 0 0 0 0 0
4 4 5 6 6 5 4 4 3 3 2 1 1 1 1 1 1 2 2 2 2 2 2 2 1 1 1 1 1 1 1 1 1 0 0 0 0 0 0 0 0 0 0
5 5 5 5 5 5 4 4 3 3 2 2 1 1 1 1 1 2 2 2 2 2 2 2 2 2 1 1 1 1 1 1 1 0 0 0 0 0 0 0 0 0 0
5 5 5 5 5 5 4 4 3 2 2 2 1 1 1 1 1 2 2 1 1 1 2 2 2 2 2 2 1 1 1 1 1 0 0 0 0 0 0 0 0 0 0
5 5 5 5 5 5 5 4 3 3 2 2 1 1 1 1 1 1 1 1 1 1 1 2 2 2 2 2 2 1 1 1 1 0 0 0 0 0 0 0 0 0 0
4 5 5 5 5 5 5 4 3 3 2 2 1 1 1 1 1 1 1 1 1 1 1 1 1 1 2 2 1 1 1 1 1 0 0 0 0 0 0 0 0 0 0
4 4 5 5 5 5 5 4 4 3 2 2 1 1 1 1 1 1 0 0 0 0 0 1 1 1 1 1 1 1 1 1 0 0 0 0 0 0 0 0 0 0 0
4 4 5 6 6 5 5 5 4 3 2 2 1 1 1 1 1 1 0 0 0 0 0 0 0 0 0 1 1 1 0 0 0 0 0 0 0 0 0 0 0 0 0
4 4 5 6 6 5 5 5 4 3 2 2 1 1 1 1 1 1 0 0 0 0 0 0 0 0 0 0 0 1 0 0 0 0 0 0 0 0 0 0 0 0 0
4 4 5 5 5 5 5 5 4 3 2 2 1 1 1 1 1 1 0 0 0 0 0 0 0 0 0 0 0 0 0 0 0 0 0 0 0 0 0 0 0 0 0
4 4 4 5 4 4 4 4 4 3 2 1 1 1 1 1 1 1 0 0 0 0 0 0 0 0 0 0 0 0 0 0 0 0 0 0 0 0 0 0 0 1 1
4 4 4 4 4 3 4 3 3 2 2 1 1 1 1 1 1 1 0 0 0 0 0 0 0 0 0 0 0 0 0 0 0 0 0 0 0 0 0 0 0 1 1
4 4 4 3 3 3 3 2 2 2 1 1 1 1 1 1 1 1 1 1 0 0 0 0 0 0 0 0 0 0 0 0 0 0 0 0 0 0 0 0 0 0 1
3 3 3 3 3 3 2 2 2 2 1 1 1 1 1 1 1 1 1 1 1 0 0 0 0 0 0 0 0 0 0 0 0 0 0 0 0 0 0 0 0 0 0
2 2 3 3 3 3 2 2 2 2 2 2 1 1 1 1 1 1 1 1 0 0 0 0 0 0 0 0 0 0 0 0 0 0 0 0 0 0 0 0 0 0 0
2 2 2 2 3 3 3 3 3 2 2 2 1 1 1 1 1 1 1 0 0 0 0 0 0 0 0 0 0 0 0 0 0 0 0 0 0 0 0 0 0 0 0
1 1 2 2 2 3 3 3 3 3 2 2 1 1 1 1 1 1 1 0 0 0 0 0 0 0 0 0 0 0 0 0 0 0 0 0 0 0 0 0 0 0 0
2 1 1 2 2 2 3 4 3 3 2 2 1 1 1 1 1 1 1 0 0 0 0 0 0 0 0 0 0 0 0 0 0 0 0 0 0 0 0 0 0 0 0
2 2 1 1 2 2 3 3 3 3 2 2 2 1 1 1 1 1 1 1 0 0 0 0 0 0 0 0 0 0 0 0 0 0 0 0 0 0 0 0 0 0 0
2 2 1 1 2 2 3 3 3 3 2 2 2 1 1 1 1 1 1 1 1 0 0 0 0 0 0 0 0 0 0 0 0 0 0 0 0 0 0 0 0 0 0
Wind_Speed
6 7 13 13 13 13 13 14 14 15 14 14 14 14 14 14 14 14 14 14 14 14 15 15 15 15 15 15 15 14 14 15 15 15 14 14 14 14 14 13 11 7 13
10 10 13 13 13 14 14 14 14 14 14 14 14 14 14 14 14 14 14 14 14 14 14 15 15 15 14 14 14 14 15 15 14 14 13 12 12 13 13 13 12 8 13
12 11 13 13 14 14 14 14 13 13 14 14 14 14 14 13 13 13 13 14 14 14 14 14 14 14 13 13 13 13 14 14 14 13 11 6 7 13 13 13 12 12 12
12 11 11 13 14 14 14 14 13 13 13 14 14 13 13 13 13 13 13 13 13 13 13 13 13 13 13 13 13 14 14 14 13 12 6 5 5 11 13 12 12 12 12
10 10 11 14 15 15 15 14 13 13 13 13 13 13 13 13 13 13 13 13 13 13 12 12 12 12 12 12 13 14 14 14 14 10 5 5 4 10 12 12 11 11 11
9 8 11 14 15 15 14 14 13 13 13 12 13 13 13 13 13 13 13 13 12 12 12 12 11 11 12 12 13 13 14 13 10 5 5 4 4 9 11 11 11 10 10
10 8 10 13 15 15 14 14 13 13 12 12 12 13 13 13 12 12 12 12 12 12 12 11 11 11 11 11 12 12 12 12 7 5 4 4 5 10 11 11 10 10 10
10 9 10 12 13 14 14 14 13 13 12 12 12 12 12 12 12 12 12 11 11 11 11 11 10 10 10 11 11 12 11 10 7 5 4 3 7 10 10 10 10 10 10
9 8 7 8 9 12 12 13 13 12 12 11 11 12 12 12 12 12 11 11 11 11 10 10 9 9 10 10 10 11 11 10 5 3 3 2 7 9 9 9 9 9 9
8 7 7 7 7 7 8 11 12 11 11 11 10 11 11 10 10 10 9 10 10 10 10 9 9 9 9 9 10 10 10 8 4 3 2 3 7 8 8 8 8 8 8
8 7 7 7 7 6 7 9 10 10 10 9 8 11 9 5 5 5 6 8 9 9 9 9 8 8 8 8 9 9 7 3 3 2 1 5 6 7 7 8 8 8 8
9 8 7 8 7 7 6 6 5 5 5 5 5 6 5 4 4 5 6 7 7 7 7 8 7 7 5 3 5 7 3 3 2 1 2 6 6 6 7 7 7 7 7
9 8 8 8 7 7 5 5 3 3 3 4 5 5 5 4 3 3 2 3 3 4 3 4 3 2 3 2 2 2 3 2 1 1 2 5 5 5 6 6 6 6 7
9 9 7 7 7 6 6 4 4 3 3 4 5 6 5 3 3 3 2 2 2 1 2 2 2 2 3 3 3 3 3 2 1 1 1 5 5 5 6 6 6 6 7
8 9 8 8 7 6 6 5 4 4 4 4 4 5 5 4 4 3 2 2 2 2 2 2 2 3 3 3 2 3 3 2 1 1 1 3 4 4 5 5 6 6 6
7 8 8 8 7 6 5 5 5 4 4 4 4 5 6 4 4 4 3 2 2 2 2 2 2 2 2 2 2 2 2 2 2 1 1 2 4 4 4 5 5 6 7
7 7 7 8 7 7 6 5 5 4 4 4 4 5 6 5 5 4 3 2 2 2 3 2 3 2 2 2 2 1 1 1 2 1 1 1 1 4 5 5 5 6 7
6 6 7 7 6 6 5 5 4 4 4 4 4 4 5 6 6 5 4 3 2 2 2 2 2 2 2 1 1 0 1 1 1 1 1 1 1 1 3 5 6 6 7
5 6 6 6 6 5 4 4 4 3 3 3 3 4 4 5 6 5 4 3 3 2 2 2 2 2 1 1 1 0 0 1 1 1 1 0 0 0 1 3 6 6 7
4 4 5 5 5 5 4 3 3 3 2 2 3 4 5 5 5 5 4 4 3 3 2 2 2 2 1 1 1 1 1 0 0 1 1 0 0 0 1 1 2 4 7
3 3 5 6 5 5 4 4 3 3 3 2 2 4 5 5 5 5 4 4 4 3 3 3 2 2 1 1 2 2 2 2 0 0 0 0 1 1 1 1 1 1 3
3 3 5 6 5 4 4 4 3 3 2 2 2 2 4 4 4 5 5 4 4 4 3 3 2 2 1 1 2 1 1 3 2 1 1 1 1 1 1 2 2 2 2
2 2 3 5 6 4 4 4 4 2 2 2 1 1 2 4 4 4 5 5 4 4 3 3 3 3 2 0 1 2 2 3 2 2 1 1 1 1 2 2 2 3 3
2 2 2 3 5 4 4 5 7 5 4 3 3 2 1 2 4 4 4 4 4 4 3 3 3 2 3 2 0 0 1 2 1 2 2 2 2 2 3 3 3 3 3
1 2 2 3 4 4 5 5 5 4 3 2 3 3 2 1 2 3 4 4 4 3 3 3 3 2 3 3 2 1 1 0 1 1 3 3 3 3 3 3 3 3 3
0 0 1 2 3 3 4 5 5 5 5 4 3 4 3 2 2 2 3 3 3 3 4 3 3 3 2 2 2 2 2 1 1 1 2 3 3 3 3 2 2 3 3
Wind_Direction
159 163 150 144 138 130 126 120 120 119 114 112 110 106 106 107 107 105 104 102 100 99 97 95 93 92 90 88 86 84 81 79 75 72 70 70 71 70 68 65 61 53 58
152 157 149 144 139 132 128 123 120 120 117 115 113 110 109 109 109 108 107 104 103 101 98 96 94 92 91 90 88 85 83 80 76 72 66 63 65 68 67 64 61 59 58
146 151 148 144 139 133 128 124 122 121 121 117 115 113 111 111 112 111 110 106 103 101 98 97 95 93 92 90 89 87 85 82 77 70 62 46 54 66 66 62 60 57 55
145 148 149 144 139 135 130 126 123 124 124 122 118 116 115 114 114 113 112 108 105 102 100 98 97 96 94 91 89 88 87 81 77 70 54 41 45 65 65 61 59 56 53
142 146 149 143 139 136 133 131 127 125 124 125 122 120 119 117 115 114 113 110 107 105 102 100 98 97 95 93 91 88 87 83 76 63 45 37 38 65 63 60 57 54 52
138 143 148 143 141 138 135 133 130 128 125 126 126 123 122 119 116 113 112 112 111 109 105 103 100 99 97 95 94 91 89 85 72 54 43 33 38 65 64 60 55 53 50
137 140 145 144 143 140 137 135 132 129 128 126 129 128 124 121 119 115 112 113 114 113 110 106 102 99 97 96 96 94 93 87 74 56 42 31 51 66 63 59 54 50 46
139 139 141 143 142 141 139 136 133 131 131 126 128 128 126 123 121 119 116 115 115 115 113 110 106 102 98 95 97 97 93 88 76 61 43 34 62 65 62 56 51 48 45
135 135 135 136 136 140 139 137 135 134 133 129 128 124 123 125 123 122 120 118 117 117 116 114 111 106 100 97 99 98 92 84 72 55 49 42 63 64 60 55 50 45 41
134 136 137 134 133 133 137 134 132 132 131 129 124 118 115 115 118 119 119 119 119 119 118 117 116 108 99 97 101 100 93 79 65 50 32 56 63 62 59 54 47 42 37
144 144 140 139 137 134 134 136 133 131 128 124 121 116 111 104 104 106 113 116 120 121 120 117 114 106 95 96 101 99 91 80 69 48 26 61 63 61 58 53 46 39 35
159 158 150 146 146 142 139 131 132 131 128 125 125 122 118 114 108 104 103 106 108 108 112 111 106 98 89 85 94 94 91 88 71 43 48 63 61 58 55 50 42 36 33
163 161 160 155 152 147 139 138 131 129 131 131 131 127 124 115 108 97 91 91 92 90 87 91 85 81 92 99 99 103 102 93 77 39 42 62 58 52 49 45 37 30 27
166 166 162 158 155 150 145 145 141 139 142 144 142 137 133 128 122 119 110 100 88 89 95 87 83 80 90 99 111 115 110 105 94 54 42 59 52 43 39 36 28 23 20
171 169 165 159 156 152 149 152 148 150 151 151 148 148 145 142 142 135 130 123 108 102 103 100 99 91 82 83 106 117 120 121 107 74 27 52 46 33 30 25 19 15 11
168 169 165 165 161 153 153 155 154 156 155 150 153 156 152 148 148 144 138 136 130 125 121 115 110 101 89 87 92 114 126 129 121 111 62 33 32 26 20 15 9 4 2
165 163 164 166 160 158 157 156 154 160 161 157 155 157 157 152 152 148 143 144 144 131 118 108 97 86 80 76 74 113 139 139 133 132 99 61 17 20 14 6 2 359 354
161 163 169 166 161 161 160 155 158 162 160 158 156 154 156 155 152 148 144 149 142 128 124 121 114 96 86 90 93 87 133 140 140 137 116 93 48 10 1 4 358 350 345
161 165 168 160 159 159 153 147 148 147 155 155 152 155 155 154 154 148 147 150 138 126 122 132 114 118 113 87 120 106 129 144 163 140 129 96 27 19 352 354 356 345 341
153 153 154 150 152 148 140 126 122 125 139 142 156 159 154 154 153 146 143 146 141 130 125 127 119 98 115 124 84 49 354 310 159 152 173 87 318 330 346 340 339 329 335
145 137 153 155 160 156 152 152 159 167 166 153 165 158 154 155 152 150 148 147 148 146 153 151 134 115 75 73 70 11 346 335 312 229 194 231 297 318 329 309 311 308 315
161 157 161 167 169 174 172 165 165 159 155 150 136 142 153 154 156 153 155 158 159 148 145 148 135 130 103 89 114 97 344 327 316 311 272 243 290 329 320 309 295 290 294
160 175 173 176 170 173 156 130 117 100 98 97 118 149 166 162 158 155 156 158 158 155 163 167 158 151 161 160 100 140 154 235 293 302 276 278 306 312 305 301 298 292 295
182 186 171 158 158 159 154 156 156 160 169 179 179 175 144 160 159 154 154 156 159 159 164 171 164 160 155 171 199 120 161 165 173 295 304 301 303 293 292 306 305 297 298
187 169 169 158 154 157 158 166 167 165 166 150 150 153 148 152 163 158 157 154 161 162 167 163 162 163 165 169 171 157 129 75 135 186 278 303 310 282 275 278 282 290 297
70 106 140 157 164 157 152 166 172 171 163 153 164 172 170 164 172 171 166 165 167 167 173 176 171 168 172 165 163 161 161 171 196 187 241 284 290 286 282 272 273 280 291